Time,TemperatureF,DewpointF,PressureIn,WindDirection,WindDirectionDegrees,WindSpeedMPH,WindSpeedGustMPH,Humidity,HourlyPrecipIn,Conditions,Clouds,dailyrainin,SoftwareType,DateUTC
2013-09-14 00:03:00,50.9,47.0,29.86,NNE,27,5.0,13.0,85,0.00,,,0.00,weatherlink.com 1.10,2013-09-14 04:03:00,
2013-09-14 00:18:00,50.5,46.0,29.87,North,355,2.0,9.0,85,0.00,,,0.00,weatherlink.com 1.10,2013-09-14 04:18:00,
2013-09-14 00:33:00,50.4,46.0,29.87,NNE,20,5.0,7.0,84,0.00,,,0.00,weatherlink.com 1.10,2013-09-14 04:33:00,
2013-09-14 00:48:00,50.3,46.0,29.87,ENE,67,1.0,14.0,84,0.00,,,0.00,weatherlink.com 1.10,2013-09-14 04:48:00,
2013-09-14 01:03:00,49.8,46.0,29.88,NE,34,4.0,10.0,85,0.00,,,0.00,weatherlink.com 1.10,2013-09-14 05:03:00,
2013-09-14 01:18:00,49.5,46.0,29.88,North,355,1.0,11.0,86,0.00,,,0.00,weatherlink.com 1.10,2013-09-14 05:18:00,
2013-09-14 01:33:00,49.2,44.0,29.89,West,277,6.0,8.0,83,0.00,,,0.00,weatherlink.com 1.10,2013-09-14 05:33:00,
2013-09-14 01:48:00,48.9,44.0,29.89,West,272,3.0,10.0,84,0.00,,,0.00,weatherlink.com 1.10,2013-09-14 05:48:00,
2013-09-14 02:03:00,48.7,44.0,29.89,NNW,328,2.0,7.0,84,0.00,,,0.00,weatherlink.com 1.10,2013-09-14 06:03:00,
2013-09-14 02:19:00,48.6,44.0,29.89,WNW,295,4.0,10.0,85,0.00,,,0.00,weatherlink.com 1.10,2013-09-14 06:19:00,
2013-09-14 02:33:00,48.5,44.0,29.89,NNE,27,4.0,11.0,85,0.00,,,0.00,weatherlink.com 1.10,2013-09-14 06:33:00,
2013-09-14 02:48:00,48.5,44.0,29.90,NW,308,3.0,6.0,85,0.00,,,0.00,weatherlink.com 1.10,2013-09-14 06:48:00,
2013-09-14 03:03:00,48.4,44.0,29.90,North,360,2.0,3.0,86,0.00,,,0.00,weatherlink.com 1.10,2013-09-14 07:03:00,
2013-09-14 03:18:00,48.3,45.0,29.90,NW,320,1.0,6.0,87,0.00,,,0.00,weatherlink.com 1.10,2013-09-14 07:18:00,
2013-09-14 03:33:00,48.1,45.0,29.90,NE,42,2.0,4.0,88,0.00,,,0.00,weatherlink.com 1.10,2013-09-14 07:33:00,
2013-09-14 03:48:00,48.0,45.0,29.90,NE,34,2.0,6.0,88,0.00,,,0.00,weatherlink.com 1.10,2013-09-14 07:48:00,
2013-09-14 04:03:00,47.9,45.0,29.91,WNW,292,0.0,4.0,89,0.00,,,0.00,weatherlink.com 1.10,2013-09-14 08:03:00,
2013-09-14 04:18:00,47.9,45.0,29.91,NE,40,2.0,7.0,88,0.00,,,0.00,weatherlink.com 1.10,2013-09-14 08:18:00,
2013-09-14 04:33:00,47.9,45.0,29.91,NW,316,4.0,5.0,88,0.00,,,0.00,weatherlink.com 1.10,2013-09-14 08:33:00,
2013-09-14 04:48:00,47.7,45.0,29.92,WNW,298,2.0,5.0,90,0.00,,,0.00,weatherlink.com 1.10,2013-09-14 08:48:00,
2013-09-14 05:03:00,47.7,44.0,29.92,NNW,338,4.0,8.0,88,0.00,,,0.00,weatherlink.com 1.10,2013-09-14 09:03:00,
2013-09-14 05:18:00,47.8,44.0,29.92,NW,312,0.0,8.0,87,0.00,,,0.00,weatherlink.com 1.10,2013-09-14 09:18:00,
2013-09-14 05:33:00,47.7,44.0,29.93,NNW,335,1.0,5.0,87,0.00,,,0.00,weatherlink.com 1.10,2013-09-14 09:33:00,
2013-09-14 05:48:00,47.7,44.0,29.93,West,279,3.0,6.0,88,0.00,,,0.00,weatherlink.com 1.10,2013-09-14 09:48:00,
2013-09-14 06:03:00,47.5,44.0,29.94,WSW,251,4.0,9.0,88,0.00,,,0.00,weatherlink.com 1.10,2013-09-14 10:03:00,
2013-09-14 06:18:00,47.6,44.0,29.94,North,5,1.0,4.0,88,0.00,,,0.00,weatherlink.com 1.10,2013-09-14 10:18:00,
2013-09-14 06:33:00,47.7,44.0,29.95,NE,53,2.0,8.0,86,0.00,,,0.00,weatherlink.com 1.10,2013-09-14 10:33:00,
2013-09-14 06:48:00,47.8,44.0,29.95,NNE,20,0.0,2.0,86,0.00,,,0.00,weatherlink.com 1.10,2013-09-14 10:48:00,
2013-09-14 07:04:00,48.0,44.0,29.96,NNW,329,2.0,4.0,85,0.00,,,0.00,weatherlink.com 1.10,2013-09-14 11:04:00,
2013-09-14 07:19:00,48.1,44.0,29.97,NNW,332,9.0,11.0,85,0.00,,,0.00,weatherlink.com 1.10,2013-09-14 11:19:00,
2013-09-14 07:34:00,48.1,44.0,29.97,NW,321,6.0,14.0,86,0.00,,,0.00,weatherlink.com 1.10,2013-09-14 11:34:00,
2013-09-14 07:49:00,48.4,44.0,29.97,NW,311,2.0,13.0,86,0.00,,,0.00,weatherlink.com 1.10,2013-09-14 11:49:00,
2013-09-14 08:04:00,48.7,44.0,29.98,NW,320,6.0,16.0,85,0.00,,,0.00,weatherlink.com 1.10,2013-09-14 12:04:00,
2013-09-14 08:19:00,48.9,44.0,29.98,NNW,345,3.0,9.0,83,0.00,,,0.00,weatherlink.com 1.10,2013-09-14 12:19:00,
2013-09-14 08:34:00,49.1,45.0,29.98,North,355,4.0,10.0,84,0.00,,,0.00,weatherlink.com 1.10,2013-09-14 12:34:00,
2013-09-14 08:49:00,49.2,45.0,29.99,NNW,346,2.0,6.0,84,0.00,,,0.00,weatherlink.com 1.10,2013-09-14 12:49:00,
2013-09-14 09:04:00,49.2,44.0,30.00,NNW,343,2.0,7.0,83,0.00,,,0.00,weatherlink.com 1.10,2013-09-14 13:04:00,
2013-09-14 09:19:00,49.3,44.0,30.00,NW,325,0.0,6.0,83,0.00,,,0.00,weatherlink.com 1.10,2013-09-14 13:19:00,
2013-09-14 09:34:00,49.5,45.0,30.01,North,9,2.0,8.0,84,0.00,,,0.00,weatherlink.com 1.10,2013-09-14 13:34:00,
2013-09-14 10:04:00,50.8,46.0,30.01,NE,35,5.0,8.0,82,0.00,,,0.00,weatherlink.com 1.10,2013-09-14 14:04:00,
2013-09-14 10:19:00,51.2,45.0,30.01,NW,312,1.0,9.0,79,0.00,,,0.00,weatherlink.com 1.10,2013-09-14 14:19:00,
2013-09-14 10:34:00,51.9,45.0,30.02,NW,310,6.0,6.0,77,0.00,,,0.00,weatherlink.com 1.10,2013-09-14 14:34:00,
2013-09-14 10:49:00,52.2,45.0,30.01,NNW,344,4.0,10.0,77,0.00,,,0.00,weatherlink.com 1.10,2013-09-14 14:49:00,
2013-09-14 11:04:00,52.5,45.0,30.01,NW,326,2.0,16.0,76,0.00,,,0.00,weatherlink.com 1.10,2013-09-14 15:04:00,
2013-09-14 11:19:00,52.3,45.0,30.02,West,262,10.0,16.0,77,0.00,,,0.00,weatherlink.com 1.10,2013-09-14 15:19:00,
2013-09-14 11:34:00,52.7,45.0,30.02,WNW,299,10.0,13.0,75,0.00,,,0.00,weatherlink.com 1.10,2013-09-14 15:34:00,
2013-09-14 11:49:00,52.7,44.0,30.02,NW,317,3.0,14.0,73,0.00,,,0.00,weatherlink.com 1.10,2013-09-14 15:49:00,
2013-09-14 12:04:00,53.0,45.0,30.02,NW,325,8.0,18.0,73,0.00,,,0.00,weatherlink.com 1.10,2013-09-14 16:04:00,
2013-09-14 12:19:00,53.3,45.0,30.01,WNW,293,3.0,11.0,73,0.00,,,0.00,weatherlink.com 1.10,2013-09-14 16:19:00,
2013-09-14 12:34:00,53.7,45.0,30.02,NW,315,6.0,17.0,72,0.00,,,0.00,weatherlink.com 1.10,2013-09-14 16:34:00,
2013-09-14 12:49:00,54.7,45.0,30.01,North,9,2.0,13.0,70,0.00,,,0.00,weatherlink.com 1.10,2013-09-14 16:49:00,
2013-09-14 13:04:00,55.5,44.0,30.01,West,272,9.0,14.0,66,0.00,,,0.00,weatherlink.com 1.10,2013-09-14 17:04:00,
2013-09-14 13:19:00,55.4,45.0,30.01,NW,324,10.0,15.0,69,0.00,,,0.00,weatherlink.com 1.10,2013-09-14 17:19:00,
2013-09-14 13:34:00,55.1,45.0,30.01,West,263,4.0,20.0,68,0.00,,,0.00,weatherlink.com 1.10,2013-09-14 17:34:00,
2013-09-14 13:49:00,56.0,45.0,30.01,WNW,288,12.0,18.0,67,0.00,,,0.00,weatherlink.com 1.10,2013-09-14 17:49:00,
2013-09-14 14:04:00,56.4,45.0,30.00,NNW,347,5.0,14.0,65,0.00,,,0.00,weatherlink.com 1.10,2013-09-14 18:04:00,
2013-09-14 14:19:00,57.2,45.0,30.00,SSE,166,4.0,15.0,63,0.00,,,0.00,weatherlink.com 1.10,2013-09-14 18:19:00,
2013-09-14 14:35:00,57.2,45.0,30.01,North,5,8.0,14.0,63,0.00,,,0.00,weatherlink.com 1.10,2013-09-14 18:35:00,
2013-09-14 14:50:00,56.0,43.0,30.01,NW,311,6.0,13.0,62,0.00,,,0.00,weatherlink.com 1.10,2013-09-14 18:50:00,
2013-09-14 15:05:00,56.3,45.0,30.01,NNW,343,8.0,17.0,65,0.00,,,0.00,weatherlink.com 1.10,2013-09-14 19:05:00,
2013-09-14 15:20:00,56.1,43.0,30.01,NNW,333,1.0,10.0,63,0.00,,,0.00,weatherlink.com 1.10,2013-09-14 19:20:00,
2013-09-14 15:35:00,55.8,44.0,30.02,NNW,340,2.0,11.0,66,0.00,,,0.00,weatherlink.com 1.10,2013-09-14 19:35:00,
2013-09-14 15:50:00,55.7,44.0,30.02,WNW,287,9.0,12.0,66,0.00,,,0.00,weatherlink.com 1.10,2013-09-14 19:50:00,
2013-09-14 16:05:00,56.0,43.0,30.02,WNW,286,1.0,9.0,63,0.00,,,0.00,weatherlink.com 1.10,2013-09-14 20:05:00,
2013-09-14 16:20:00,55.8,44.0,30.02,NNW,329,2.0,10.0,64,0.00,,,0.00,weatherlink.com 1.10,2013-09-14 20:20:00,
2013-09-14 16:35:00,56.6,44.0,30.02,NNW,342,5.0,7.0,62,0.00,,,0.00,weatherlink.com 1.10,2013-09-14 20:35:00,
2013-09-14 16:50:00,56.2,44.0,30.03,North,11,3.0,10.0,63,0.00,,,0.00,weatherlink.com 1.10,2013-09-14 20:50:00,
2013-09-14 17:05:00,56.7,45.0,30.03,ESE,114,2.0,7.0,65,0.00,,,0.00,weatherlink.com 1.10,2013-09-14 21:05:00,
2013-09-14 17:20:00,56.3,45.0,30.04,NNW,340,4.0,6.0,66,0.00,,,0.00,weatherlink.com 1.10,2013-09-14 21:20:00,
2013-09-14 17:50:00,55.6,45.0,30.05,NNE,12,2.0,9.0,67,0.00,,,0.00,weatherlink.com 1.10,2013-09-14 21:50:00,
2013-09-14 18:05:00,55.7,45.0,30.05,West,275,4.0,4.0,68,0.00,,,0.00,weatherlink.com 1.10,2013-09-14 22:05:00,
2013-09-14 18:35:00,54.7,48.0,30.06,WNW,286,1.0,3.0,78,0.00,,,0.00,weatherlink.com 1.10,2013-09-14 22:35:00,
2013-09-14 18:50:00,54.0,48.0,30.06,SSW,197,0.0,2.0,81,0.00,,,0.00,weatherlink.com 1.10,2013-09-14 22:50:00,
2013-09-14 19:05:00,53.2,49.0,30.06,ESE,105,2.0,3.0,85,0.00,,,0.00,weatherlink.com 1.10,2013-09-14 23:05:00,
2013-09-14 19:20:00,52.5,48.0,30.07,SSW,192,3.0,8.0,85,0.00,,,0.00,weatherlink.com 1.10,2013-09-14 23:20:00,
2013-09-14 19:35:00,52.4,47.0,30.07,NNE,23,1.0,5.0,81,0.00,,,0.00,weatherlink.com 1.10,2013-09-14 23:35:00,
2013-09-14 19:50:00,51.8,47.0,30.08,ESE,117,1.0,3.0,84,0.00,,,0.00,weatherlink.com 1.10,2013-09-14 23:50:00,
2013-09-14 20:05:00,51.3,47.0,30.08,East,90,2.0,3.0,86,0.00,,,0.00,weatherlink.com 1.10,2013-09-15 00:05:00,
2013-09-14 20:20:00,51.2,48.0,30.09,East,97,2.0,2.0,87,0.00,,,0.00,weatherlink.com 1.10,2013-09-15 00:20:00,
2013-09-14 20:35:00,51.1,47.0,30.10,South,182,1.0,4.0,85,0.00,,,0.00,weatherlink.com 1.10,2013-09-15 00:35:00,
2013-09-14 20:50:00,51.6,47.0,30.10,North,9,1.0,7.0,83,0.00,,,0.00,weatherlink.com 1.10,2013-09-15 00:50:00,
2013-09-14 21:05:00,51.1,46.0,30.11,NW,307,1.0,5.0,83,0.00,,,0.00,weatherlink.com 1.10,2013-09-15 01:05:00,
2013-09-14 21:20:00,50.0,46.0,30.10,East,98,0.0,4.0,86,0.00,,,0.00,weatherlink.com 1.10,2013-09-15 01:20:00,
2013-09-14 21:35:00,49.9,46.0,30.10,WNW,300,0.0,4.0,86,0.00,,,0.00,weatherlink.com 1.10,2013-09-15 01:35:00,
2013-09-14 21:50:00,47.8,45.0,30.11,ESE,120,1.0,3.0,90,0.00,,,0.00,weatherlink.com 1.10,2013-09-15 01:50:00,
2013-09-14 22:05:00,46.7,44.0,30.11,ESE,121,1.0,1.0,91,0.00,,,0.00,weatherlink.com 1.10,2013-09-15 02:05:00,
2013-09-14 22:21:00,45.5,44.0,30.12,ESE,108,1.0,2.0,93,0.00,,,0.00,weatherlink.com 1.10,2013-09-15 02:21:00,
2013-09-14 22:36:00,44.7,43.0,30.12,East,101,0.0,3.0,94,0.00,,,0.00,weatherlink.com 1.10,2013-09-15 02:36:00,
2013-09-14 22:51:00,44.3,43.0,30.13,East,101,0.0,1.0,95,0.00,,,0.00,weatherlink.com 1.10,2013-09-15 02:51:00,
2013-09-14 23:06:00,43.8,43.0,30.13,ESE,109,1.0,2.0,95,0.00,,,0.00,weatherlink.com 1.10,2013-09-15 03:06:00,
2013-09-14 23:21:00,43.3,42.0,30.14,SSW,199,0.0,3.0,96,0.00,,,0.00,weatherlink.com 1.10,2013-09-15 03:21:00,
2013-09-14 23:36:00,42.6,42.0,30.14,ESE,109,1.0,3.0,96,0.00,,,0.00,weatherlink.com 1.10,2013-09-15 03:36:00,
2013-09-14 23:51:00,42.0,41.0,30.14,SSE,152,2.0,3.0,96,0.00,,,0.00,weatherlink.com 1.10,2013-09-15 03:51:00,